Theta_e
343 343 343 341 340 337 334 333 333 333 331 331 332 335 337 339 339 338 336 331 328 328 328 329 329 329 330 331 332 332 333 334 334 335 335 335 335 336 336 336 336 336 336 336 335 333 332 330 329 328 328 327 327 327 327 326 325 325 325 325 325 325 325 325 325 324 323 321 319 318 318 319 319 319
344 343 342 341 340 340 338 336 335 335 333 331 329 331 334 336 337 338 337 333 328 328 328 329 329 329 329 329 329 330 330 332 334 334 334 335 335 335 336 336 336 336 336 336 336 336 335 333 330 329 328 327 326 327 327 326 325 324 325 325 325 325 325 326 326 325 325 323 320 319 319 319 319 320
343 342 342 341 341 340 340 340 339 339 338 335 332 330 329 331 334 336 338 335 330 328 329 329 329 329 329 329 329 328 328 329 330 331 332 333 334 335 335 335 336 336 337 336 336 336 336 336 333 330 327 326 326 326 327 326 325 325 325 325 325 326 326 326 326 326 326 325 322 320 319 320 320 321
341 340 340 340 340 341 341 341 341 341 340 340 338 335 332 330 330 333 335 335 333 332 332 331 331 330 330 330 329 329 328 329 329 328 328 329 331 332 333 333 334 335 336 336 336 336 336 336 336 334 329 326 326 326 326 326 326 325 325 326 326 326 327 327 327 327 327 326 324 321 320 320 321 322
338 339 338 338 339 340 340 340 340 340 340 340 341 340 338 336 335 334 334 334 335 335 334 334 333 333 332 331 330 330 329 329 329 329 328 328 327 328 329 330 332 333 334 335 335 335 336 336 336 336 332 328 325 325 326 326 326 326 326 326 326 327 327 328 328 327 327 326 325 322 321 321 321 322
336 336 337 336 337 338 338 338 339 338 339 339 339 339 339 339 338 338 337 337 337 336 334 334 335 334 334 334 333 333 333 332 332 331 329 328 326 326 326 327 328 329 331 332 333 334 334 335 335 336 335 330 326 325 325 326 326 326 326 326 327 327 328 328 328 327 326 326 325 323 322 321 322 322
335 335 334 334 334 335 336 336 337 337 337 338 337 337 337 337 337 338 338 339 339 337 334 334 335 334 335 335 334 335 335 336 335 334 333 332 330 328 325 325 325 326 327 329 330 331 332 333 334 335 335 333 328 326 325 326 326 326 326 326 326 327 329 329 328 327 327 326 325 324 323 322 322 322
335 334 334 333 333 334 335 335 335 335 336 336 337 337 337 337 337 337 337 338 338 338 337 335 335 335 335 335 334 335 336 336 336 336 336 336 335 333 330 327 324 324 324 325 327 328 329 331 332 333 333 332 330 328 326 326 327 327 326 326 326 327 328 329 328 328 327 326 325 325 324 323 323 323
334 333 332 332 333 334 334 333 334 334 334 335 336 336 337 337 337 337 337 337 337 337 337 336 335 335 335 334 334 334 335 336 336 336 336 336 337 336 334 333 330 327 326 325 324 324 326 328 329 330 330 330 330 329 327 326 326 327 327 327 326 326 327 328 328 328 327 326 326 325 325 324 324 324
333 332 332 332 333 333 333 332 333 333 334 334 334 335 335 335 336 336 336 336 337 337 336 336 335 335 335 335 334 334 335 336 336 335 334 334 335 336 335 335 335 334 332 330 328 326 324 325 325 327 329 329 330 330 329 327 326 326 327 327 327 326 326 328 328 328 328 327 326 326 326 326 326 326
332 332 332 332 333 333 333 333 333 333 334 334 334 334 334 334 335 335 335 336 337 337 337 337 336 336 336 337 335 334 335 336 335 334 334 334 335 335 335 335 336 336 337 336 334 332 330 328 325 325 326 328 330 331 331 330 328 326 326 327 327 327 327 327 328 328 328 327 327 327 327 327 327 327
333 333 333 333 333 333 333 333 334 334 334 335 335 335 335 335 336 336 336 337 337 338 339 339 338 338 338 338 336 335 336 336 334 335 338 338 336 336 336 336 336 337 337 337 336 336 335 334 332 329 327 326 328 329 330 330 330 329 327 326 327 327 327 327 327 328 328 328 328 327 327 328 328 328
332 332 332 332 333 333 334 334 335 335 335 336 335 335 336 337 338 338 339 340 340 341 341 340 340 339 340 339 338 338 339 339 339 341 343 342 341 342 342 342 341 341 341 341 340 339 339 339 338 335 333 330 328 327 328 329 330 330 329 327 326 326 327 327 327 327 328 328 328 328 328 328 328 329
331 332 332 332 332 334 334 334 335 336 337 338 337 337 338 340 341 342 342 342 342 343 343 342 342 343 343 343 343 344 345 346 347 348 348 348 348 348 349 347 345 345 346 346 346 344 344 344 343 342 340 337 334 331 329 328 329 330 330 330 329 327 327 327 327 327 328 329 329 328 329 328 329 328
331 332 332 332 333 334 334 335 336 338 339 340 341 341 342 344 345 346 345 345 344 345 345 345 346 347 347 347 349 350 351 352 353 353 353 353 353 352 352 352 350 348 350 351 350 350 349 349 348 346 346 344 341 338 335 332 331 330 330 331 331 329 327 327 327 327 328 330 329 329 329 329 329 327
331 331 332 333 333 334 335 336 338 340 341 343 344 344 344 346 347 348 348 348 348 349 349 350 350 351 352 353 354 355 356 356 356 356 356 355 355 355 354 355 354 353 353 353 352 352 352 351 351 350 349 348 345 343 340 337 335 333 332 332 332 331 329 327 327 327 328 330 330 329 329 329 328 326
331 332 332 334 334 335 337 338 340 342 343 345 346 347 347 348 349 350 351 351 352 353 353 354 355 356 356 357 357 358 359 358 357 357 357 357 357 356 356 356 356 356 355 353 352 353 354 353 352 352 351 349 346 346 344 340 338 337 334 332 331 331 331 329 327 327 329 331 331 330 330 330 328 325
332 333 334 335 336 337 338 340 342 344 346 347 348 349 350 350 351 353 353 354 356 356 357 358 358 358 359 360 360 360 360 359 359 358 358 358 356 354 353 355 355 355 354 353 351 352 354 354 353 353 354 350 348 350 349 345 343 341 338 335 333 331 332 331 328 327 329 331 331 330 331 331 328 326
334 335 336 337 338 339 340 342 344 346 347 349 350 351 352 352 353 355 356 357 358 359 359 360 360 360 361 361 361 361 360 360 360 358 357 357 354 351 351 353 354 354 353 352 349 349 352 354 352 353 354 351 349 352 352 349 347 344 340 337 335 333 333 333 330 328 329 331 332 331 332 331 329 327
336 337 338 339 340 341 342 343 345 347 349 350 351 352 353 354 355 356 357 358 359 359 360 361 361 361 361 361 361 361 360 360 360 358 357 356 352 350 352 354 354 354 354 353 351 348 350 352 350 351 352 350 349 352 352 350 349 346 343 341 338 335 334 334 333 330 329 331 332 333 333 331 329 328
339 340 341 341 342 343 344 345 347 349 350 351 353 354 354 355 356 357 358 359 360 360 360 361 361 360 360 359 358 358 358 359 360 359 359 358 355 352 352 354 356 357 357 356 354 349 349 351 350 348 349 349 349 350 350 350 350 345 343 342 341 338 336 335 335 333 331 332 333 334 334 332 330 328
341 342 343 344 345 345 346 347 349 351 352 353 354 355 356 357 357 358 359 360 360 361 361 361 360 359 357 356 356 358 360 361 361 360 359 360 357 354 354 354 356 357 356 356 355 351 350 352 350 348 349 348 347 348 349 350 350 346 342 342 342 340 338 337 336 334 333 333 333 335 335 332 330 328
343 343 344 345 346 347 348 349 351 352 354 354 355 356 357 358 358 359 361 361 361 361 361 360 359 358 357 358 359 361 362 362 361 360 359 359 359 358 358 357 356 357 354 351 351 351 350 351 350 349 348 347 347 347 347 347 347 347 346 345 344 342 340 337 335 335 335 334 334 335 335 333 330 328
345 345 346 347 348 350 350 352 353 354 355 356 357 358 358 359 360 361 361 362 362 362 362 360 360 360 361 362 361 361 360 359 359 359 356 353 350 349 347 345 347 350 346 339 342 348 349 348 349 348 347 346 347 346 346 346 345 345 346 347 346 344 341 337 334 335 336 336 336 336 336 333 331 329
348 348 349 349 350 351 353 354 355 356 357 358 359 359 360 360 361 362 362 362 362 363 363 362 362 361 361 360 359 357 357 357 356 352 346 339 335 334 334 335 339 341 337 332 337 343 344 344 345 345 345 346 346 346 345 345 344 343 344 345 346 345 343 339 335 334 336 337 337 337 336 334 332 330
350 350 351 351 352 354 355 356 357 358 359 359 360 361 361 362 363 363 363 363 363 363 363 362 361 360 359 357 356 355 354 350 345 338 333 330 329 329 332 336 339 340 338 338 339 341 341 341 342 343 343 345 345 345 344 344 344 343 342 342 344 344 344 341 337 334 336 337 338 337 336 335 333 330
352 352 353 354 355 355 356 357 358 359 360 361 361 362 363 363 363 364 364 364 363 362 361 360 359 359 358 356 352 347 342 336 331 329 329 329 329 329 331 334 337 338 338 338 338 339 339 339 340 341 342 343 343 343 344 343 343 343 341 341 343 343 343 341 337 334 336 337 337 337 336 334 332 330
354 354 355 355 356 357 358 359 360 361 361 362 362 363 364 364 364 364 363 362 361 360 359 359 358 355 351 344 339 334 330 328 328 329 330 330 330 331 332 333 334 335 336 335 336 337 338 338 339 339 340 341 342 343 343 343 343 342 342 342 341 342 343 342 338 335 336 336 336 337 336 334 331 329
355 355 356 356 357 358 359 361 362 362 362 363 364 364 365 365 364 363 362 361 360 358 355 352 347 341 335 331 329 328 329 329 330 330 331 331 332 332 333 333 333 334 334 334 335 335 336 336 337 338 339 340 341 341 342 343 343 342 342 342 342 341 342 341 338 335 335 335 336 336 336 335 331 329
356 356 357 358 359 360 361 362 362 362 363 364 364 364 364 363 362 361 359 356 352 347 342 336 332 329 328 328 329 329 329 330 330 330 331 331 332 331 332 332 332 332 333 334 334 333 333 334 334 335 336 337 339 340 341 341 342 342 343 342 342 341 340 339 338 335 333 335 336 336 336 335 332 330
358 358 359 360 360 361 362 362 362 363 364 364 364 363 362 360 357 354 349 343 337 333 330 329 328 328 328 329 329 330 330 330 330 331 331 330 330 330 330 330 331 332 332 334 335 333 333 332 333 333 334 335 336 338 339 340 341 342 342 341 340 341 341 340 338 335 333 335 336 336 336 333 331 330
359 360 361 362 362 362 362 363 364 364 363 362 362 360 357 352 346 341 335 331 329 328 328 328 328 329 329 330 330 330 330 330 330 330 330 329 329 329 329 330 331 332 333 334 335 334 334 333 333 334 334 334 335 336 337 339 340 340 340 340 340 340 340 340 338 336 335 336 337 337 335 332 330 328
361 362 362 362 362 363 363 363 363 363 362 361 358 353 346 339 334 331 328 328 328 328 328 329 329 329 330 330 330 330 329 330 330 329 328 327 327 328 329 330 331 331 332 333 333 334 335 335 335 335 335 335 335 336 336 338 339 339 340 340 341 340 339 339 338 337 336 337 338 337 334 331 329 326
362 363 363 364 364 364 364 363 361 360 358 353 346 339 333 330 328 327 327 327 328 328 329 329 329 330 330 330 329 329 330 329 328 327 326 326 327 328 329 330 331 331 331 331 331 332 333 335 336 336 336 336 336 337 337 338 340 341 341 340 339 339 340 338 337 336 337 337 337 336 333 330 328 324
364 364 364 364 364 363 360 359 357 353 347 341 334 330 327 327 327 327 328 328 328 329 329 330 330 331 330 329 329 329 329 328 327 326 325 326 327 328 329 330 331 331 331 331 331 330 331 333 335 336 337 337 337 337 338 338 339 340 340 340 339 338 338 338 337 336 336 337 337 336 332 329 326 323
363 364 364 362 361 358 355 352 348 342 335 331 328 326 326 326 327 328 328 328 328 329 329 330 330 330 329 329 329 329 328 327 325 325 326 326 327 328 329 330 332 332 332 332 332 331 331 332 333 335 336 337 337 337 337 338 338 338 339 340 338 336 335 335 334 333 333 334 335 333 329 326 324 322
363 361 359 357 355 352 349 343 336 330 327 325 325 325 326 327 327 328 328 328 328 329 329 330 330 330 329 329 329 329 327 326 325 325 326 326 326 328 330 331 332 333 333 332 332 332 332 332 333 334 335 336 337 337 336 336 336 336 337 338 337 334 331 330 329 329 330 332 332 330 327 325 323 321
354 350 346 344 341 338 335 330 326 325 325 325 326 326 326 326 327 328 328 328 329 329 329 329 330 330 329 329 329 329 327 325 325 326 327 326 326 328 330 331 332 332 332 332 331 331 332 331 332 333 334 335 337 336 335 334 334 333 334 335 334 332 330 329 329 330 330 330 329 327 325 323 321 320
343 339 334 332 329 326 325 324 324 325 325 325 325 324 325 326 328 328 329 329 329 329 328 329 329 329 328 329 330 328 326 324 325 327 327 325 326 329 331 331 331 332 331 331 330 330 330 330 330 330 331 333 335 334 332 331 331 329 328 330 331 331 330 330 331 330 328 327 325 323 321 320 319 317
335 331 328 326 325 324 324 324 324 324 324 324 324 324 325 327 328 329 329 329 329 328 328 328 329 328 328 329 330 328 325 324 326 327 327 325 327 330 331 330 331 332 331 331 330 329 328 328 328 329 329 331 331 330 329 329 328 327 326 326 328 330 330 330 330 329 326 325 323 321 318 317 316 315
327 325 324 325 325 324 324 324 324 324 324 323 324 325 327 329 329 329 329 329 328 328 328 329 330 329 328 330 330 327 324 324 326 328 327 326 327 331 332 331 331 331 330 330 330 328 327 327 327 328 328 328 327 328 328 327 326 325 325 326 327 328 329 329 328 327 325 322 321 319 317 317 317 316
324 324 324 325 325 325 325 325 325 325 324 325 326 328 329 330 330 329 329 329 328 329 329 330 331 330 329 330 329 325 324 325 327 328 328 326 327 330 332 330 330 330 330 329 329 328 328 328 328 329 328 327 328 328 327 326 325 325 325 325 324 324 324 323 323 323 322 321 320 319 319 318 316 312
325 325 326 326 326 326 326 327 327 327 327 328 329 330 330 330 330 330 330 329 329 330 331 332 332 331 330 330 328 325 324 325 327 329 329 326 326 329 330 328 328 328 328 328 327 327 327 328 328 329 329 329 329 329 328 326 325 325 324 323 322 320 319 318 317 317 319 320 319 318 317 316 313 309
327 327 327 328 328 328 328 328 328 329 330 330 330 331 330 330 330 330 330 330 330 331 333 333 333 332 331 330 327 325 324 325 327 329 330 327 326 327 328 328 327 326 326 326 326 325 325 326 326 327 327 327 328 328 327 326 326 324 323 322 320 319 318 317 316 315 315 316 316 312 310 309 308 307
329 329 328 328 329 329 330 330 330 331 331 331 331 330 330 330 330 330 330 331 331 332 334 334 334 333 332 330 328 327 326 326 326 328 330 329 328 326 327 327 328 327 326 325 324 323 323 323 324 324 324 325 325 325 325 324 323 323 321 320 319 318 317 317 316 315 313 312 311 308 307 308 308 308
Wind_Speed
13 13 13 13 12 11 12 13 13 13 12 13 14 15 15 15 16 18 20 21 17 14 12 11 10 9 9 9 9 9 9 8 9 12 13 13 13 13 13 14 14 14 14 15 15 15 16 17 18 18 18 18 18 18 17 17 17 17 17 17 17 16 16 15 14 14 13 13 12 12 13 13 13 14
15 15 15 14 13 12 12 12 13 13 13 13 14 15 16 17 17 18 21 24 21 15 13 12 11 11 11 11 12 12 12 11 11 13 14 15 15 14 15 16 17 17 17 18 18 17 18 18 19 20 20 20 19 19 19 18 18 18 18 18 17 17 16 15 15 15 14 14 13 13 13 14 14 15
16 17 16 16 15 13 13 12 12 13 14 14 15 15 16 18 19 19 21 25 24 19 18 18 17 17 17 16 15 16 16 15 16 16 17 17 17 17 18 18 18 19 20 20 20 20 20 20 20 20 21 21 21 21 20 20 20 19 19 18 18 17 17 16 16 16 15 15 15 15 14 15 15 16
18 18 18 18 16 15 15 14 14 14 14 15 15 16 17 18 19 20 22 26 28 25 23 23 22 21 21 20 20 19 19 19 20 21 21 21 21 21 21 20 20 21 21 22 22 23 23 22 22 22 22 23 22 22 22 21 21 21 20 19 19 18 17 16 16 16 16 15 16 16 16 16 16 17
19 19 19 19 18 17 17 17 16 16 16 16 16 17 18 19 19 21 22 26 30 29 27 24 23 22 23 23 21 21 22 22 22 24 24 24 25 25 25 24 23 23 23 24 24 25 25 25 24 23 23 23 23 23 23 22 22 22 21 21 20 19 18 17 17 17 17 16 16 17 17 17 17 17
20 20 20 20 19 18 19 18 18 18 17 18 18 18 19 20 20 21 23 25 29 31 29 27 25 24 24 24 23 22 23 23 24 25 26 27 28 28 28 28 27 26 25 26 26 26 26 26 26 26 25 25 24 24 24 24 24 24 23 22 21 21 20 18 18 18 17 17 17 17 18 18 18 18
20 21 21 20 19 19 20 20 19 19 19 20 20 20 21 22 22 22 24 25 28 31 31 29 27 25 25 25 24 24 25 25 25 27 27 27 28 29 30 31 30 29 28 28 28 28 28 28 27 27 26 26 26 26 25 25 25 25 25 24 23 22 22 20 19 19 18 17 18 18 18 19 19 19
22 22 21 20 19 20 21 21 20 20 21 21 22 22 22 23 24 24 25 27 28 30 32 31 28 28 29 28 27 27 29 28 29 29 29 29 29 29 30 32 32 32 31 31 31 31 31 30 30 29 28 28 28 28 27 27 27 27 27 26 25 24 24 23 21 20 19 18 18 18 19 19 19 20
23 23 21 20 20 22 22 21 20 20 21 21 22 23 23 23 24 25 26 27 29 31 34 34 31 30 31 31 30 30 32 32 32 32 32 32 32 32 31 32 33 33 33 33 33 33 33 33 33 32 31 31 30 29 29 29 29 29 28 28 27 26 25 24 23 22 20 19 19 19 19 19 20 21
24 24 23 22 23 23 22 21 21 21 22 23 23 24 24 24 25 26 27 28 29 31 33 35 35 33 33 33 33 31 32 35 35 34 34 34 34 34 34 34 33 33 33 34 34 34 35 35 35 35 34 34 32 31 31 31 31 31 30 30 29 28 27 26 25 24 22 21 20 19 20 20 20 21
27 26 25 25 25 25 24 24 23 24 24 25 25 25 25 25 26 27 28 29 30 32 33 35 36 36 35 35 35 33 33 36 36 35 35 36 35 34 34 35 34 34 34 34 33 34 35 35 36 36 36 36 35 34 33 33 32 32 32 32 31 30 29 28 27 26 25 23 21 20 20 21 21 22
29 29 28 28 28 27 27 27 27 26 26 26 27 26 27 28 29 29 30 31 32 33 35 36 36 37 38 37 36 35 35 36 36 34 36 38 37 35 35 36 35 34 34 33 33 34 35 35 36 36 37 37 37 36 36 36 35 34 33 33 33 32 31 30 30 28 27 25 23 22 21 22 22 22
31 30 30 30 30 29 29 29 28 28 27 28 28 28 28 30 30 31 31 32 32 33 35 36 36 37 38 37 36 35 34 34 35 35 36 38 37 36 37 37 35 34 34 34 34 35 34 34 35 36 37 37 37 37 38 38 38 36 35 34 34 34 34 33 32 31 29 27 25 24 23 23 23 23
31 31 31 30 30 30 29 28 27 27 27 27 27 28 28 29 30 30 31 31 31 32 34 35 35 36 38 36 35 35 35 34 35 35 36 38 37 37 40 40 37 35 35 37 38 37 35 35 36 36 36 36 35 35 36 38 39 39 37 35 35 35 35 35 34 33 31 29 27 25 25 24 23 23
32 31 31 31 30 29 28 27 26 26 26 26 26 26 27 27 28 29 29 30 30 31 33 34 34 37 39 37 35 36 36 35 35 35 36 38 39 39 41 43 41 37 36 38 42 42 39 38 39 40 39 37 34 33 33 33 36 38 39 38 36 35 36 36 36 35 33 30 28 27 26 25 24 22
32 32 32 31 30 29 27 26 26 26 26 25 26 26 25 25 26 26 27 28 29 30 32 34 35 36 38 38 36 35 34 35 36 37 38 39 40 40 41 43 43 40 38 41 45 46 44 43 43 43 43 41 36 32 31 32 32 34 37 38 37 37 37 37 37 37 34 31 29 29 27 26 24 22
32 32 31 30 30 28 27 27 26 25 25 25 25 24 24 24 24 24 25 26 27 28 31 35 37 35 35 38 37 34 34 36 39 41 41 40 41 43 44 45 45 43 43 46 49 51 49 47 47 48 47 46 41 34 33 36 36 33 34 35 36 37 38 38 38 38 36 33 31 29 29 27 24 23
32 31 31 31 30 28 27 27 26 25 24 24 24 24 24 23 23 23 24 24 25 27 29 33 36 34 34 38 39 37 36 39 41 41 41 42 43 44 45 47 47 46 47 50 51 53 53 50 51 53 51 50 49 42 38 41 40 37 35 35 35 36 38 38 39 39 37 34 32 31 30 28 25 23
31 31 31 31 30 28 27 26 25 24 24 24 25 25 25 24 24 24 24 23 24 25 27 31 35 35 36 38 39 38 37 38 39 40 41 43 43 43 44 47 49 49 51 51 50 53 55 52 52 56 54 52 54 52 47 45 43 40 39 37 34 34 36 38 39 40 39 36 34 32 31 29 26 24
30 30 30 30 29 28 27 25 24 23 23 25 26 26 26 26 26 27 26 24 25 26 28 31 34 35 35 35 35 34 34 35 36 38 42 43 42 42 46 49 50 50 50 50 50 52 55 54 53 56 55 54 56 58 56 54 50 46 42 40 36 33 34 38 39 40 40 38 35 33 31 29 26 24
29 29 29 28 28 27 26 24 22 22 23 25 27 27 27 28 29 29 28 27 28 28 29 31 32 33 33 32 32 32 32 33 35 38 43 45 43 45 48 50 52 51 49 50 51 52 54 55 53 54 55 55 56 58 56 55 56 50 41 38 37 34 33 36 38 41 42 40 37 34 32 30 27 25
28 28 27 27 27 27 24 22 21 21 23 25 27 27 29 31 33 32 30 30 31 30 31 31 31 31 31 31 32 35 36 38 38 39 43 44 44 47 49 50 53 53 52 52 50 50 53 54 51 52 53 54 57 57 55 54 54 50 42 36 36 36 36 36 37 40 43 42 39 36 34 31 29 27
26 26 26 25 25 24 22 20 20 20 23 26 27 28 31 34 34 32 30 30 31 30 30 31 31 32 33 34 36 39 41 42 40 39 40 41 42 44 47 49 51 52 54 54 50 51 54 53 51 50 48 51 55 56 54 52 50 47 44 40 36 35 37 37 37 40 43 43 41 38 35 33 31 29
25 24 24 23 22 21 20 20 20 21 23 26 27 28 31 33 32 29 28 28 29 29 30 31 33 35 37 38 38 40 42 43 43 43 44 43 43 44 46 49 49 51 54 55 51 52 55 53 51 51 48 50 54 54 52 52 49 44 43 42 40 36 35 38 39 40 43 44 43 40 38 36 34 32
24 23 22 21 19 19 20 20 20 21 22 24 25 27 28 29 28 27 28 28 28 30 32 33 34 36 36 37 38 40 42 45 46 47 47 45 45 45 46 47 48 51 54 53 48 50 54 53 53 54 52 53 55 54 52 51 50 47 44 42 42 39 37 40 42 42 43 45 45 42 40 38 36 33
23 22 20 19 18 19 20 20 20 20 20 22 24 25 25 25 25 26 28 29 30 31 32 32 34 35 36 37 40 42 44 46 46 45 45 44 44 45 45 43 44 49 53 50 46 48 52 54 54 54 54 55 55 54 51 50 51 49 45 42 41 41 39 39 43 44 44 46 47 44 42 40 36 34
21 20 19 19 19 19 19 19 19 20 20 22 23 23 23 24 24 26 28 29 29 29 30 32 34 36 37 40 42 44 44 45 44 43 43 43 44 45 45 44 43 46 49 50 48 48 51 54 55 54 54 56 56 54 51 50 49 47 45 44 43 42 40 39 41 43 44 48 49 46 44 41 37 35
20 20 19 19 19 19 19 19 19 20 21 21 22 22 22 23 25 26 27 27 27 29 31 33 35 37 38 39 40 41 41 41 41 41 41 41 42 43 44 45 45 46 48 49 47 46 48 52 55 54 54 56 57 56 54 52 50 49 48 47 45 43 42 41 40 43 45 48 51 50 48 44 40 37
20 20 20 19 19 19 19 20 20 21 22 22 22 22 23 24 24 24 24 25 27 30 32 34 35 36 36 35 35 36 37 37 38 38 38 38 39 40 41 42 43 44 46 47 45 42 42 46 49 51 52 54 56 57 56 54 54 53 52 50 48 47 45 44 43 44 47 51 53 53 51 47 43 41
20 20 20 20 20 20 21 21 22 23 23 23 23 23 23 24 23 23 23 25 28 30 31 32 33 32 32 32 32 32 32 33 34 35 36 37 36 37 40 43 44 44 46 46 44 41 40 41 42 44 47 50 53 55 55 55 55 56 55 52 49 47 46 46 46 45 47 52 55 54 52 48 44 41
20 20 20 20 21 21 22 23 23 24 23 22 22 22 22 21 22 22 24 25 27 28 28 29 29 28 28 29 28 28 29 30 31 30 32 35 37 40 44 48 49 49 48 45 41 38 38 38 38 39 41 44 47 49 51 52 52 50 48 47 47 47 47 47 47 47 48 51 55 55 52 49 45 39
20 20 21 21 22 23 24 25 24 22 21 20 20 20 20 20 21 22 23 24 25 25 25 25 25 25 25 25 25 27 28 27 26 26 30 35 40 42 45 48 51 52 50 47 41 36 34 32 32 34 35 38 41 42 44 47 49 47 45 44 45 47 48 48 47 48 50 53 56 57 54 50 45 38
21 22 23 24 25 25 25 23 21 18 18 19 19 19 19 20 21 21 22 22 22 23 23 22 22 22 23 23 24 26 25 23 23 27 32 36 39 40 42 46 49 49 48 47 43 37 33 29 27 27 29 30 32 34 35 40 45 47 48 50 50 49 49 48 47 48 52 55 57 57 54 48 42 36
23 24 25 25 24 22 20 18 16 16 17 17 17 17 19 19 19 20 20 20 20 20 20 20 20 20 21 22 23 23 22 22 26 30 33 35 36 38 41 44 46 46 44 43 41 37 33 29 26 25 26 26 27 28 31 36 43 46 46 47 49 51 50 49 47 47 51 56 58 56 53 47 40 34
24 24 24 22 20 18 16 16 16 16 16 16 17 18 18 18 17 17 18 19 19 19 18 18 18 18 19 21 21 20 21 26 30 31 32 33 33 36 39 42 43 43 41 40 38 35 32 29 26 26 26 26 26 28 29 32 36 39 41 39 41 46 49 49 48 48 52 56 56 53 51 45 38 32
22 21 20 18 16 16 15 15 15 15 16 17 17 16 16 16 16 16 17 17 18 18 18 17 16 17 19 20 18 18 23 28 30 31 32 32 33 35 36 38 39 39 38 37 35 31 28 25 23 24 27 28 27 27 27 28 29 31 34 36 37 39 42 43 44 46 51 54 52 49 46 40 34 29
20 18 17 16 15 15 15 14 15 15 15 15 15 15 15 15 15 16 16 16 17 17 16 16 15 16 18 17 15 18 23 27 29 30 32 32 33 34 35 35 35 35 35 36 33 30 27 23 18 17 21 24 25 25 25 25 26 25 28 33 35 36 37 37 39 42 43 43 42 39 35 31 28 26
15 14 13 13 13 13 13 14 14 14 13 13 13 14 14 14 14 14 15 15 16 16 15 14 14 15 16 15 15 19 23 26 27 29 31 33 34 34 34 34 33 31 32 33 33 31 28 25 20 16 15 18 22 24 21 18 17 15 18 26 31 33 33 33 37 40 39 37 35 30 25 23 23 24
11 10 11 11 12 12 13 13 13 12 12 12 12 13 13 13 13 14 14 14 14 14 13 12 13 14 14 14 15 19 22 25 26 27 30 32 33 32 33 32 29 27 29 32 33 33 32 29 26 22 18 16 18 18 14 8 4 3 8 16 23 27 31 35 40 41 38 35 31 28 24 22 21 20
11 11 11 12 13 13 13 12 12 11 11 11 12 12 12 12 12 12 12 13 12 12 12 12 11 12 13 13 14 17 20 22 24 25 27 30 30 29 28 26 24 24 28 30 32 32 31 29 26 22 16 12 8 6 5 6 9 10 10 14 20 24 29 35 39 39 36 33 30 28 26 24 21 18
11 11 12 13 13 12 11 10 10 10 10 10 11 11 11 11 11 11 11 11 11 11 11 11 10 11 12 11 12 16 18 19 20 21 24 26 27 25 22 21 21 24 28 29 29 29 26 23 19 16 12 10 8 10 15 21 23 19 17 20 23 24 26 29 31 32 32 32 30 28 25 22 19 18
12 12 12 12 10 9 9 9 9 9 9 10 10 10 10 10 10 10 10 10 11 11 11 10 9 9 10 9 11 14 16 16 17 18 20 23 22 20 18 19 21 23 26 27 27 25 22 19 16 14 14 13 15 20 26 30 29 26 25 25 24 22 21 21 20 19 20 23 23 22 23 22 21 23
11 11 10 9 8 8 8 8 8 8 9 9 9 9 9 9 10 10 10 10 10 10 10 9 8 8 7 7 9 12 14 14 14 15 17 19 18 16 16 17 18 19 20 22 21 20 19 17 15 14 15 16 19 25 30 29 27 26 26 25 23 22 21 19 16 13 13 14 14 14 15 17 17 17
7 7 6 5 5 6 6 7 7 7 8 8 8 8 9 9 10 10 10 10 10 10 9 8 7 7 6 5 6 10 11 11 12 12 13 15 15 14 14 14 14 13 14 15 15 15 16 16 13 12 15 18 20 23 26 25 24 23 23 21 20 19 17 15 15 15 15 16 16 14 13 12 10 6
4 3 3 3 3 4 5 5 6 6 7 8 8 9 9 9 10 10 10 10 10 9 8 7 6 6 5 4 5 7 10 10 10 11 11 11 12 13 13 13 12 11 10 10 10 11 13 13 13 12 13 15 15 17 18 18 18 19 18 17 17 16 15 15 15 15 16 17 17 15 15 15 13 8
Wind_Direction
257 258 258 260 261 261 260 260 262 265 267 265 263 264 265 269 279 289 295 302 311 315 319 325 331 334 332 324 316 305 297 285 271 268 269 272 274 275 277 279 280 283 285 288 289 288 284 281 278 277 276 275 275 274 273 272 271 271 272 273 276 279 283 287 289 290 291 293 296 296 295 297 302 310
258 260 260 261 261 260 260 261 264 266 269 269 267 266 266 268 273 279 288 298 305 308 311 318 321 323 323 319 312 308 306 301 289 281 278 278 279 279 276 276 277 278 279 281 283 285 286 283 279 275 273 272 271 270 269 268 267 267 268 270 273 276 280 283 286 287 288 288 288 290 291 292 298 306
256 259 260 261 262 262 264 264 265 268 270 273 273 271 269 269 272 275 280 288 295 301 303 305 306 307 308 306 304 303 304 303 299 295 292 289 287 283 278 276 276 276 277 278 279 281 283 283 281 277 272 270 268 267 267 266 265 265 266 268 271 274 278 281 284 285 285 284 282 283 285 288 293 301
256 258 259 260 262 265 266 268 269 270 271 273 275 275 274 272 272 275 275 279 290 298 299 300 303 302 301 299 297 298 298 298 298 298 296 295 292 288 285 283 280 278 279 279 279 279 280 281 281 279 274 270 267 266 265 265 265 265 266 267 269 272 275 278 281 283 283 281 279 279 281 284 290 297
255 258 260 260 262 264 267 269 271 273 274 275 276 277 278 278 277 277 276 279 289 297 299 301 303 303 301 299 298 297 295 294 294 293 291 290 289 287 287 286 283 281 280 279 279 279 278 278 278 279 277 273 269 267 266 265 265 266 266 268 269 270 271 275 278 280 281 279 277 277 279 282 287 294
256 258 261 262 263 264 266 269 271 273 275 276 278 280 281 283 283 282 281 282 288 296 302 303 304 304 302 301 301 300 297 295 293 289 287 287 285 284 284 283 281 279 278 277 277 276 276 275 276 277 277 275 271 268 266 265 265 265 266 267 268 269 269 271 274 277 278 278 276 276 278 281 285 291
259 260 261 263 265 267 268 270 272 274 276 277 280 283 284 286 287 287 286 285 287 294 300 302 304 305 303 302 303 301 299 297 295 292 290 288 285 283 282 281 280 279 277 276 275 275 274 273 272 273 274 273 270 267 265 264 264 264 264 265 266 267 267 268 270 274 275 275 275 276 277 280 284 288
261 262 263 265 267 269 270 272 273 275 277 279 281 283 284 286 287 288 288 287 288 291 294 298 301 303 302 301 302 301 300 299 298 296 295 293 290 287 284 281 280 279 278 276 275 275 274 273 271 270 269 269 267 265 264 263 262 262 262 263 264 265 266 266 267 269 271 272 272 274 276 279 282 285
261 263 265 267 269 270 272 274 275 276 277 279 281 282 283 285 286 287 288 288 289 289 291 295 298 298 299 300 300 301 301 300 299 298 297 296 295 294 291 288 286 285 283 280 278 277 275 274 272 270 268 267 265 265 264 263 262 262 262 262 262 263 263 264 265 265 267 268 269 271 274 276 279 282
260 262 265 267 268 271 273 274 276 278 279 280 281 283 284 285 286 287 288 289 290 290 291 294 295 296 297 297 298 299 300 300 299 298 297 296 297 298 298 297 296 295 292 288 285 282 279 276 273 271 269 267 266 265 264 263 262 261 261 261 261 261 261 262 262 262 263 264 265 268 271 274 277 280
259 261 264 266 268 270 272 273 274 276 278 280 282 283 284 285 286 286 288 289 290 292 292 293 294 295 296 296 296 298 298 297 296 297 298 298 298 299 298 297 297 296 294 292 289 285 282 279 275 272 270 268 266 265 265 263 262 260 260 260 259 259 259 259 260 260 260 261 262 265 268 271 274 277
259 261 263 265 267 269 271 273 274 276 278 279 280 281 282 283 284 285 287 288 290 291 292 293 294 295 296 296 296 297 297 296 296 299 301 299 299 299 297 295 295 294 293 291 289 285 283 281 279 276 273 269 266 264 264 263 263 261 260 259 258 258 257 257 257 258 258 258 259 262 265 268 271 274
260 262 264 265 267 269 271 273 275 276 277 279 279 280 281 283 285 286 287 289 290 292 293 293 294 294 295 295 296 296 296 298 300 302 302 301 301 302 299 294 293 294 294 292 289 285 285 286 284 281 277 273 269 266 264 263 263 262 261 260 258 257 256 255 255 255 254 254 255 258 263 266 269 273
264 265 267 269 270 272 274 275 276 278 279 280 281 281 283 285 287 289 289 290 291 292 293 293 294 295 294 294 296 297 298 300 302 303 303 302 302 303 300 295 292 293 295 295 291 288 289 291 288 284 280 277 274 270 266 265 264 264 263 261 259 258 257 255 254 254 252 250 251 254 258 263 266 271
266 268 270 272 275 277 278 278 280 281 282 283 283 283 284 287 289 290 290 290 291 292 293 293 294 294 294 295 298 300 302 305 305 304 304 302 301 302 301 298 294 293 296 298 296 292 291 292 291 287 283 281 279 277 274 272 270 268 266 264 261 258 256 254 253 253 251 247 247 250 254 259 264 267
268 270 272 275 277 278 280 281 283 283 283 285 285 285 286 287 288 289 288 289 291 292 293 293 293 294 296 298 300 303 307 307 306 303 301 300 300 300 299 298 298 298 299 299 296 292 289 290 289 285 282 281 281 281 280 276 270 266 264 262 260 257 254 252 251 250 249 245 243 245 249 254 260 262
271 273 275 277 278 279 280 282 283 284 285 287 288 288 288 287 287 288 289 290 292 293 293 293 294 296 299 299 300 305 308 304 302 300 299 300 300 298 298 298 298 296 295 293 293 290 288 288 287 284 282 282 281 277 269 265 262 259 257 255 254 253 251 249 248 247 245 242 240 242 245 249 254 256
272 274 276 277 278 279 281 282 283 284 286 288 290 290 289 288 289 290 291 293 295 296 296 294 295 298 300 300 302 306 306 302 300 300 299 299 297 295 295 296 293 291 289 289 289 287 286 287 287 287 287 285 283 280 268 260 257 256 254 251 248 249 249 247 246 245 242 239 238 238 241 245 248 250
272 274 275 277 278 280 280 282 284 285 288 290 291 291 291 291 292 293 294 297 298 297 296 294 295 297 299 300 302 304 303 301 300 299 298 296 292 289 291 292 291 290 290 290 285 282 286 288 286 287 289 286 285 286 281 272 265 257 253 251 248 246 247 247 244 242 240 237 236 236 238 240 242 244
271 272 274 276 278 279 280 281 283 286 289 290 290 291 292 293 293 294 297 298 297 295 293 293 294 295 296 297 298 300 301 301 302 301 298 295 288 287 291 292 291 293 295 295 289 281 284 289 285 284 287 285 284 287 286 282 278 267 257 254 252 247 245 245 243 240 238 235 234 234 235 236 236 239
269 271 272 275 277 278 279 281 284 287 288 288 289 290 292 293 293 293 295 296 295 294 293 293 293 293 295 295 297 299 298 298 299 297 295 294 291 289 289 290 293 299 300 299 293 283 283 289 285 282 285 284 283 284 285 286 285 278 267 261 259 255 249 246 242 239 237 234 232 231 232 232 232 233
268 269 270 273 275 277 279 281 284 286 286 287 288 289 292 292 291 293 297 298 298 297 295 295 295 296 297 298 300 301 300 299 298 293 293 299 298 292 289 289 294 298 298 298 294 284 284 289 287 284 284 282 281 282 284 285 284 280 277 271 262 255 250 247 243 238 235 233 230 229 228 227 226 228
267 268 270 272 274 276 279 281 283 284 285 285 287 289 290 289 290 295 300 299 298 298 297 298 298 297 298 298 300 303 305 306 305 301 300 303 301 295 293 293 292 290 291 296 295 287 287 290 287 284 280 277 279 283 283 281 279 276 278 279 269 256 247 243 240 236 233 231 228 226 225 223 223 224
269 270 271 273 274 276 279 281 283 284 284 284 286 287 286 287 291 297 298 296 295 296 295 295 295 295 297 300 302 306 308 308 309 307 306 305 302 299 297 296 291 285 287 294 293 287 287 287 284 282 278 273 276 280 280 278 275 271 273 277 276 266 249 238 235 233 230 228 226 223 221 221 222 223
270 272 274 276 278 280 282 283 283 283 283 283 284 283 284 287 293 295 293 292 293 293 293 294 295 298 301 303 304 305 305 305 306 306 306 307 306 303 298 295 290 286 289 294 292 286 285 284 281 281 278 273 273 274 275 275 272 268 268 271 273 270 257 241 233 229 226 223 223 222 219 218 221 224
271 275 278 279 281 282 283 283 283 282 281 280 280 282 285 288 290 291 291 293 293 294 297 299 300 302 304 303 303 303 303 303 304 305 307 307 306 302 296 291 287 285 287 291 289 285 283 282 279 278 275 273 272 272 270 270 269 267 264 263 264 267 265 249 233 227 223 219 218 218 216 216 220 223
275 277 278 279 280 281 281 281 281 279 277 277 279 283 286 288 290 292 293 294 296 299 302 302 302 302 302 302 302 302 303 305 307 309 311 309 305 302 299 295 290 287 287 289 286 281 278 278 276 275 273 272 272 271 268 267 268 265 261 261 261 263 264 254 236 226 221 217 215 215 213 213 216 218
275 275 275 276 276 277 278 278 277 275 275 278 281 284 287 288 290 291 293 296 299 300 300 299 299 299 300 301 302 304 306 309 312 313 313 312 310 308 307 304 300 297 296 294 289 282 278 277 277 275 274 272 270 269 268 266 265 264 262 262 260 257 257 253 239 226 219 216 214 211 209 208 208 209
269 269 270 271 271 273 273 272 272 274 277 281 284 286 287 287 287 288 292 296 296 295 295 296 297 299 301 303 306 309 312 314 317 317 316 315 315 315 315 313 311 311 309 305 298 290 283 280 279 278 276 274 271 270 268 264 261 261 261 259 257 254 251 245 236 224 216 213 213 210 208 206 204 204
262 262 263 264 266 267 267 268 270 274 278 281 283 283 283 283 284 288 291 292 292 293 295 297 299 302 305 307 310 314 316 318 321 322 321 321 323 325 325 324 325 326 323 317 311 303 293 288 286 283 280 277 273 271 269 266 261 257 254 250 248 248 243 236 230 223 214 212 212 210 207 206 205 205
256 255 256 257 259 260 263 266 270 274 276 277 278 279 280 283 287 290 291 292 294 296 298 300 302 305 308 312 316 319 320 321 325 327 328 330 332 333 332 330 329 329 328 326 321 312 302 295 292 288 285 281 277 273 271 269 265 260 252 242 238 242 243 236 228 220 214 212 211 208 204 202 201 203
250 250 250 251 253 256 260 263 264 267 271 273 274 277 282 286 289 291 292 295 297 299 300 302 304 308 313 317 320 322 324 328 332 335 335 334 334 334 333 329 328 328 328 329 328 324 315 306 298 294 290 286 283 279 275 271 269 268 261 250 243 242 243 238 228 217 210 209 208 205 200 197 195 196
241 243 245 248 251 255 259 260 260 263 267 270 273 279 284 287 290 292 294 296 298 299 301 304 308 313 317 320 323 326 331 336 338 338 338 337 337 335 331 326 327 330 330 329 329 329 325 318 309 301 296 292 291 289 283 276 272 269 263 256 247 240 237 236 231 218 208 206 206 200 194 191 191 193
235 238 242 246 249 252 254 257 260 262 265 268 273 280 284 286 289 293 296 298 300 301 304 310 314 316 318 322 328 333 339 341 340 341 343 343 340 335 331 328 330 334 334 333 333 332 327 321 316 310 302 299 300 297 288 280 275 271 265 254 242 237 235 233 229 219 209 206 204 195 186 184 187 189
235 237 239 241 242 243 245 249 254 258 262 267 273 278 281 284 288 293 296 298 300 303 308 312 312 313 320 329 336 342 345 344 344 347 348 347 342 337 335 335 336 338 340 341 342 340 331 321 315 311 306 304 305 302 292 283 278 275 270 257 240 232 231 227 224 217 209 204 200 189 179 178 181 182
230 230 232 234 236 239 242 246 253 259 264 268 271 274 278 284 290 294 296 299 302 306 309 309 308 314 326 334 340 345 346 346 349 351 351 348 346 342 340 340 341 344 347 349 349 346 340 329 317 308 305 305 302 295 289 288 287 281 270 256 238 225 219 213 207 202 195 189 186 181 174 173 177 179
220 221 224 229 235 240 243 247 253 258 262 266 271 276 281 286 292 296 299 304 307 308 307 307 311 322 330 333 337 344 348 349 351 353 352 350 349 346 344 345 347 349 353 356 357 354 351 347 337 319 309 305 298 288 283 288 293 286 267 249 229 212 204 195 183 177 175 172 172 174 173 172 174 178
214 219 224 229 234 240 244 247 251 255 261 267 274 281 287 291 296 299 303 307 308 307 308 312 318 325 328 327 333 343 349 351 353 355 353 351 350 349 347 347 350 356 360 2 4 5 4 2 1 353 335 313 295 284 281 288 293 281 258 244 226 205 194 185 173 166 164 163 163 165 167 169 173 177
212 219 223 226 230 234 239 246 252 257 265 272 279 285 290 294 298 302 306 308 307 307 310 315 319 321 321 322 333 344 349 352 355 356 355 352 351 350 348 348 353 4 10 9 9 10 11 10 11 8 354 328 300 278 266 271 283 208 212 232 227 204 184 174 167 161 158 157 155 153 153 159 167 171
208 215 221 227 231 234 239 249 258 263 270 278 285 289 292 296 300 303 306 307 306 306 309 313 315 315 316 322 334 344 349 354 356 356 355 354 354 353 353 356 4 16 22 20 17 14 12 12 13 13 6 351 324 268 211 134 110 119 154 189 198 186 171 165 162 157 153 154 155 155 154 157 161 167
207 217 226 232 236 240 247 256 264 270 278 283 287 290 292 295 299 303 304 305 305 304 306 309 309 310 316 327 338 344 349 355 358 357 356 357 358 0 4 11 20 28 32 32 28 23 19 18 21 32 51 77 108 127 120 112 114 123 138 149 154 153 153 156 158 157 155 155 157 155 154 157 168 182
207 217 224 230 238 247 254 261 267 274 280 282 284 287 290 293 298 300 300 300 300 299 299 301 300 305 316 331 340 343 349 355 358 358 358 358 1 7 12 16 25 33 38 40 39 35 32 31 34 49 74 101 122 121 113 111 117 123 125 127 128 132 137 142 145 148 153 155 157 157 158 165 178 192
204 213 221 230 242 250 255 261 268 273 276 279 282 286 290 292 295 295 293 291 290 291 290 288 288 298 312 329 341 345 351 355 355 356 358 358 1 8 11 14 23 34 39 42 44 44 43 42 43 56 80 102 115 117 116 118 123 124 125 126 128 129 131 133 129 124 131 147 163 175 178 180 186 196
202 214 225 234 244 248 251 261 271 275 277 281 286 290 292 293 293 292 290 288 286 285 282 277 278 292 304 320 343 350 354 356 353 351 355 357 358 3 6 8 15 26 32 37 41 43 47 52 56 67 86 99 108 114 119 125 127 127 128 131 130 129 131 134 133 132 138 154 168 176 179 185 196 217
206 234 249 251 251 251 255 265 274 279 282 287 292 294 294 293 292 290 289 287 283 280 277 272 274 288 301 309 333 351 357 357 352 349 351 352 353 357 0 2 4 11 22 32 39 45 54 62 68 75 85 94 102 108 114 119 123 125 127 129 130 136 143 148 152 157 162 166 167 166 171 187 203 216